Flag for China Weather past 2 weeks in Changsha, Hunan, China

Now
64 °F

Clear.


Feels Like: 64 °F
Forecast: 64 / 81 °F
Wind: 3 mph from North

Location: Changsha

Current Time: Sep 22, 2014 at 7:11:06 AM

Latest Report: Sep 22, 2014 at 6:00 AM


Visibility: 5 mi

Pressure: 29.89 "Hg

Humidity: 88%

Dew point: 61 °F

Location of ChangshaLocation

Historic Weather in Changsha — Graph

°F

Changsha temperature yesterday

Maximum temperature yesterday: 86 °F (at 4:00 PM)
Minimum temperature yesterday: 64 °F (at 5:00 AM)
Average temperature yesterday: 75 °F

Past Weeks' High & Low Weather Summary

 TemperatureHumidityPressure
High99 °F (Sep 8, 2:00 PM)94% (Sep 9, 7:00 AM)30.04 "Hg (Sep 9, 7:00 AM)
Low64 °F (Sep 21, 5:00 AM)37% (Sep 21, 3:00 PM)29.62 "Hg (Sep 8, 5:00 PM)
Average77 °F78%29.82 "Hg
* Reported Sep 7 6:00 AM — Sep 22 6:00 AM, Changsha, Weather by CustomWeather, © 2014

Note: Actual official high and low records may vary slightly from our data, if they occured in-between our weather recording intervals... More about our weather records

Advertising

Changsha weather history for previous 24 hours

 ConditionsComfort  
Time TempWeatherWind HumidityBarometerVisibility
6:00 AM
Sep 22
64 °FClear.3 mph88%29.89 "Hg5 mi
5:00 AM66 °FClear.3 mph83%29.89 "Hg4 mi
4:00 AM66 °FClear.3 mph83%29.89 "Hg4 mi
3:00 AM66 °FClear.6 mph83%29.89 "Hg4 mi
2:00 AM66 °FClear.6 mph83%29.89 "Hg4 mi
1:00 AM68 °FClear.3 mph83%29.89 "Hg4 mi
12:00 AM68 °FClear.3 mph83%29.89 "Hg4 mi
11:00 PM
Sep 21
70 °FClear.1 mph78%29.89 "Hg5 mi
10:00 PM72 °FClear.6 mph73%29.89 "Hg10 mi
9:00 PM73 °FClear.6 mph74%29.86 "Hg10 mi
8:00 PM77 °FClear.10 mph65%29.86 "Hg10 mi
7:00 PM79 °FClear.8 mph65%29.83 "Hg10 mi
6:00 PM81 °FPassing clouds.8 mph58%29.83 "HgN/A
5:00 PM84 °FPassing clouds.10 mph51%29.80 "HgN/A
4:00 PM86 °FScattered clouds.10 mph43%29.80 "HgN/A
3:00 PM84 °FScattered clouds.6 mph37%29.80 "HgN/A
2:00 PM84 °FScattered clouds.6 mph43%29.83 "HgN/A
1:00 PM84 °FScattered clouds.8 mph43%29.86 "HgN/A
12:00 PM84 °FScattered clouds.10 mph48%29.86 "HgN/A
11:00 AM81 °FScattered clouds.3 mph54%29.89 "HgN/A
10:00 AM77 °FPassing clouds.6 mph65%29.89 "HgN/A
9:00 AM73 °FSunny.1 mph74%29.89 "Hg10 mi
8:00 AM70 °FClear.1 mph83%29.89 "Hg4 mi
7:00 AM64 °FFog.1 mph94%29.86 "Hg2 mi
Weather by CustomWeather, © 2014

See weather overviewHow to use our weather pages